User: anonymous   Login
Location: Unspecified
(0.0000°N, 0.0000°E)
Time: 14:51:55
(UTC+00:00)
Language:

Midas 4 - Orbit

View from above orbital plane
View from above orbital plane
View from above satellite
View from above satellite

Ground track
Ground track

The orbit data is extracted from the following two-line orbital elements,

1   192U 61028A   18196.86033562 -.00000010 +00000-0 -28250-2 0  9999
2   192 095.8603 335.0226 0139714 278.4905 080.0135 08.67757516797187
Epoch (UTC): 15 July 2018 20:38:52
Eccentricity: 0.0139714
inclination: 95.8603°
perigee height: 3485 km
apogee height: 3765 km
right ascension of ascending node: 335.0226°
argument of perigee: 278.4905°
revolutions per day: 8.67757516
mean anomaly at epoch: 80.0135°
orbit number at epoch: 79718

The dashed part of the orbit path shows where the satellite is in the earth's shadow,  

DLR